TimeMDT,TemperatureF,Dew PointF,Humidity,Sea Level PressureIn,VisibilityMPH,Wind Direction,Wind SpeedMPH,Gust SpeedMPH,PrecipitationIn,Events,Conditions,WindDirDegrees,DateUTC
12:53 AM,48.0,25.0,41,29.83,10.0,North,4.6,-,N/A,,Clear,10,2013-05-17 06:53:00
1:53 AM,45.0,24.1,44,29.84,10.0,NNE,4.6,-,N/A,,Clear,20,2013-05-17 07:53:00
2:53 AM,43.0,23.0,45,29.85,10.0,Calm,Calm,-,N/A,,Clear,0,2013-05-17 08:53:00
3:53 AM,39.0,21.9,50,29.89,10.0,Calm,Calm,-,N/A,,Clear,0,2013-05-17 09:53:00
4:53 AM,35.1,19.9,54,29.91,10.0,NNE,4.6,-,N/A,,Clear,20,2013-05-17 10:53:00
6:53 AM,39.9,23.0,51,29.95,10.0,Calm,Calm,-,N/A,,Clear,0,2013-05-17 12:53:00
7:53 AM,48.0,23.0,37,29.94,10.0,Calm,Calm,-,N/A,,Clear,0,2013-05-17 13:53:00
8:53 AM,57.0,27.0,32,29.91,10.0,ENE,4.6,-,N/A,,Clear,60,2013-05-17 14:53:00
9:53 AM,64.0,23.0,21,29.91,10.0,ENE,4.6,-,N/A,,Clear,60,2013-05-17 15:53:00
10:53 AM,66.0,23.0,20,29.89,10.0,Variable,5.8,-,N/A,,Clear,0,2013-05-17 16:53:00
11:53 AM,69.1,23.0,18,29.89,10.0,NNE,4.6,-,N/A,,Clear,30,2013-05-17 17:53:00
1:53 PM,75.0,12.9,9,29.85,10.0,SSW,13.8,26.5,N/A,,Clear,200,2013-05-17 19:53:00
2:53 PM,73.9,9.0,8,29.85,10.0,SSW,9.2,27.6,N/A,,Clear,210,2013-05-17 20:53:00
3:53 PM,77.0,12.0,8,29.84,10.0,SW,16.1,24.2,N/A,,Clear,230,2013-05-17 21:53:00
4:53 PM,75.9,10.9,8,29.83,10.0,SW,11.5,20.7,N/A,,Clear,230,2013-05-17 22:53:00
5:53 PM,75.0,9.0,8,29.81,10.0,WSW,12.7,-,N/A,,Clear,250,2013-05-17 23:53:00
6:53 PM,71.1,8.1,9,29.82,10.0,WSW,15.0,18.4,N/A,,Clear,250,2013-05-18 00:53:00
7:53 PM,66.9,10.9,11,29.82,10.0,WSW,6.9,-,N/A,,Clear,250,2013-05-18 01:53:00
8:53 PM,64.0,16.0,16,29.80,10.0,West,15.0,-,N/A,,Clear,270,2013-05-18 02:53:00
9:53 PM,62.1,19.0,19,29.82,10.0,West,11.5,-,N/A,,Clear,270,2013-05-18 03:53:00
10:53 PM,57.9,19.9,23,29.83,10.0,West,4.6,-,N/A,,Clear,270,2013-05-18 04:53:00
11:53 PM,53.1,19.0,26,29.84,10.0,Calm,Calm,-,N/A,,Clear,0,2013-05-18 05:53:00